Regional Weather Roundup
Issued by NWS

Home | Current Version | Previous Version | Text Only | Print | Product List | Glossary Off
Versions: 1 2 3 4 5 6 7 8 9 10 11 12 13 14 15 16 17 18 19 20 21 22 23 24 25 26 27 28 29 30 31 32 33 34 35 36 37 38 39 40 41 42 43 44 45 46 47 48 49 50

000
ASUS43 KLMK 212210
RWRKY
KENTUCKY REGIONAL WEATHER ROUNDUP
NATIONAL WEATHER SERVICE LOUISVILLE KY
600 PM EDT THU SEP 21 2017

NOTE "FAIR" INDICATES FEW OR NO CLOUDS BELOW 12,000 FEET
WITH NO SIGNIFICANT WEATHER AND/OR OBSTRUCTIONS TO VISIBILITY.

KYZ001>023-026-027-061>063-070>075-212300-
WESTERN AND SOUTH CENTRAL KENTUCKY

CITY           SKY/WX    TMP DP  RH WIND       PRES   REMARKS
PADUCAH        MOSUNNY   91  67  44 SE5       29.98F HX  94
HENDERSON      SUNNY     90  69  50 SE6       30.00F HX  94
OWENSBORO      SUNNY     93  68  43 SE5       30.00F HX  97
HOPKINSVILLE   MOSUNNY   86  71  61 S9        30.01S HX  91
BOWLING GREEN  SUNNY     89  68  49 E6        30.01F HX  93
GLASGOW        SUNNY     88  66  47 E5        30.02F HX  90
$$

KYZ024-025-028>034-038-045-046-053-212300-
NORTH CENTRAL KENTUCKY

CITY           SKY/WX    TMP DP  RH WIND       PRES   REMARKS
LOUISVILLE/SDF MOSUNNY   91  68  46 CALM      30.01F HX  95
LOUISVILLE/LOU PTSUNNY   91  69  48 CALM      30.02F HX  96
FORT KNOX      SUNNY     87  70  57 N3        30.02S HX  91
$$

KYZ035>037-039>044-047>052-055>060-089>105-212300-
NORTHEAST KENTUCKY

CITY           SKY/WX    TMP DP  RH WIND       PRES   REMARKS
LEXINGTON      MOSUNNY   88  67  49 NE7       30.05F HX  91
COVINGTON      PTSUNNY   88  70  55 CALM      30.04F HX  93
FRANKFORT      SUNNY     89  66  46 CALM      30.03F HX  91
$$

KYZ054-064>069-076>088-106>120-212300-
SOUTHEAST KENTUCKY

CITY           SKY/WX    TMP DP  RH WIND       PRES   REMARKS
JACKSON        SUNNY     81  66  60 CALM      30.08S
LONDON         PTSUNNY   84  63  49 NE6       30.06F
SOMERSET       SUNNY     82  64  54 CALM      30.06F
MIDDLESBORO    SUNNY     80  66  62 W3        30.07S
MONTICELLO     MOCLDY    85  68  56 N8        30.07S
$$





USA.gov is the U.S. government's official web portal to all federal, state and local government web resources and services.